Terminal Aerodrome Forecast
Issued by NWS Pueblo, CO

Home | Current Version | Previous Version | Text Only | Print | Product List | Glossary On
Versions: 1 2 3 4 5 6 7 8 9 10 11 12 13 14 15 16 17 18 19 20 21 22 23 24 25
000
FTUS45 KPUB 161130
TAFALS
TAF
KALS 161130Z 1612/1712 VRB05KT P6SM FEW100 SCT250
     FM162100 17007KT P6SM FEW080 SCT100 BKN130=

USA.gov is the U.S. government's official web portal to all federal, state and local government web resources and services.